Time,TemperatureF,DewpointF,PressureIn,WindDirection,WindDirectionDegrees,WindSpeedMPH,WindSpeedGustMPH,Humidity,HourlyPrecipIn,Conditions,Clouds,dailyrainin,SoftwareType,DateUTC
2013-03-17 00:00:00,39.6,37.5,29.97,NNE,17,3.0,3.0,92,0.00,,,0.00,Wunderground v.1.15,2013-03-17 04:00:00,
2013-03-17 00:04:00,39.6,37.7,29.97,NNE,17,3.0,7.0,93,0.00,,,0.00,Wunderground v.1.15,2013-03-17 04:04:00,
2013-03-17 00:10:00,39.6,37.7,29.96,NNE,19,3.0,3.0,93,0.04,,,0.00,Wunderground v.1.15,2013-03-17 04:10:00,
2013-03-17 00:16:00,39.6,37.7,29.96,NNE,17,3.0,4.0,93,0.04,,,0.01,Wunderground v.1.15,2013-03-17 04:16:00,
2013-03-17 00:22:00,39.6,37.7,29.95,NNE,17,4.0,5.0,93,0.04,,,0.01,Wunderground v.1.15,2013-03-17 04:22:00,
2013-03-17 00:28:00,39.7,37.8,29.95,NNE,17,5.0,6.0,93,0.00,,,0.01,Wunderground v.1.15,2013-03-17 04:28:00,
2013-03-17 00:34:00,39.7,37.8,29.96,NE,37,5.0,9.0,93,0.00,,,0.01,Wunderground v.1.15,2013-03-17 04:34:00,
2013-03-17 00:40:00,39.7,37.8,29.97,NE,34,3.0,3.0,93,0.00,,,0.01,Wunderground v.1.15,2013-03-17 04:40:00,
2013-03-17 00:46:00,39.7,37.6,29.98,NE,34,0.0,3.0,92,0.00,,,0.02,Wunderground v.1.15,2013-03-17 04:46:00,
2013-03-17 00:52:00,39.7,37.6,29.97,NE,34,0.0,0.0,92,0.00,,,0.02,Wunderground v.1.15,2013-03-17 04:52:00,
2013-03-17 00:58:00,39.7,37.6,29.97,NE,34,0.0,1.0,92,0.00,,,0.02,Wunderground v.1.15,2013-03-17 04:58:00,
2013-03-17 01:04:00,39.7,37.6,29.97,NE,34,0.0,0.0,92,0.00,,,0.02,Wunderground v.1.15,2013-03-17 05:04:00,
2013-03-17 01:10:00,39.7,37.6,29.98,NE,34,0.0,0.0,92,0.00,,,0.02,Wunderground v.1.15,2013-03-17 05:10:00,
2013-03-17 01:16:00,39.6,37.5,29.98,NE,34,0.0,0.0,92,0.00,,,0.02,Wunderground v.1.15,2013-03-17 05:16:00,
2013-03-17 01:22:00,39.6,37.5,29.98,NE,34,0.0,0.0,92,0.00,,,0.02,Wunderground v.1.15,2013-03-17 05:22:00,
2013-03-17 01:28:00,39.5,37.4,29.98,NE,34,0.0,0.0,92,0.00,,,0.02,Wunderground v.1.15,2013-03-17 05:28:00,
2013-03-17 01:34:00,39.5,37.4,29.98,NE,34,0.0,0.0,92,0.00,,,0.02,Wunderground v.1.15,2013-03-17 05:34:00,
2013-03-17 01:40:00,39.5,37.4,29.97,NE,34,0.0,0.0,92,0.00,,,0.02,Wunderground v.1.15,2013-03-17 05:40:00,
2013-03-17 01:48:00,39.5,37.4,29.97,NE,34,0.0,0.0,92,0.00,,,0.02,Wunderground v.1.15,2013-03-17 05:48:00,
2013-03-17 01:54:00,39.4,37.3,29.98,NE,34,0.0,0.0,92,0.00,,,0.02,Wunderground v.1.15,2013-03-17 05:54:00,
2013-03-17 02:00:00,39.2,37.1,29.98,NNE,28,1.0,2.0,92,0.00,,,0.02,Wunderground v.1.15,2013-03-17 06:00:00,
2013-03-17 02:06:00,39.1,36.7,29.98,NNE,28,2.0,3.0,91,0.00,,,0.02,Wunderground v.1.15,2013-03-17 06:06:00,
2013-03-17 02:12:00,39.0,36.6,29.98,NNE,28,2.0,2.0,91,0.00,,,0.03,Wunderground v.1.15,2013-03-17 06:12:00,
2013-03-17 02:18:00,38.9,36.5,29.98,NNE,28,2.0,3.0,91,0.00,,,0.03,Wunderground v.1.15,2013-03-17 06:18:00,
2013-03-17 02:24:00,38.8,36.4,29.98,NNE,23,2.0,4.0,91,0.00,,,0.03,Wunderground v.1.15,2013-03-17 06:24:00,
2013-03-17 02:30:00,38.7,36.0,29.97,NNE,22,3.0,3.0,90,0.00,,,0.03,Wunderground v.1.15,2013-03-17 06:30:00,
2013-03-17 02:36:00,38.5,35.8,29.96,NNE,30,5.0,8.0,90,0.00,,,0.03,Wunderground v.1.15,2013-03-17 06:36:00,
2013-03-17 02:42:00,38.4,35.7,29.95,NNE,28,7.0,7.0,90,0.00,,,0.03,Wunderground v.1.15,2013-03-17 06:42:00,
2013-03-17 02:48:00,38.2,35.2,29.96,NE,38,7.0,13.0,89,0.00,,,0.03,Wunderground v.1.15,2013-03-17 06:48:00,
2013-03-17 02:54:00,38.0,35.0,29.96,North,9,7.0,8.0,89,0.00,,,0.03,Wunderground v.1.15,2013-03-17 06:54:00,
2013-03-17 03:00:00,37.9,34.9,29.97,NNE,24,5.0,5.0,89,0.00,,,0.03,Wunderground v.1.15,2013-03-17 07:00:00,
2013-03-17 03:06:00,37.8,34.8,29.96,NNE,29,4.0,5.0,89,0.00,,,0.04,Wunderground v.1.15,2013-03-17 07:06:00,
2013-03-17 03:12:00,37.8,35.1,29.96,NNE,19,5.0,10.0,90,0.00,,,0.04,Wunderground v.1.15,2013-03-17 07:12:00,
2013-03-17 03:18:00,37.6,34.9,29.97,North,10,5.0,10.0,90,0.00,,,0.04,Wunderground v.1.15,2013-03-17 07:18:00,
2013-03-17 03:24:00,37.5,34.8,29.97,NE,38,4.0,7.0,90,0.00,,,0.05,Wunderground v.1.15,2013-03-17 07:24:00,
2013-03-17 03:30:00,37.4,34.7,29.97,NNE,26,5.0,5.0,90,0.00,,,0.05,Wunderground v.1.15,2013-03-17 07:30:00,
2013-03-17 03:38:00,37.3,34.6,29.98,NNE,33,4.0,5.0,90,0.00,,,0.05,Wunderground v.1.15,2013-03-17 07:38:00,
2013-03-17 03:44:00,37.3,34.6,29.99,East,88,4.0,4.0,90,0.00,,,0.05,Wunderground v.1.15,2013-03-17 07:44:00,
2013-03-17 03:50:00,37.2,34.8,30.01,East,92,3.0,5.0,91,0.00,,,0.06,Wunderground v.1.15,2013-03-17 07:50:00,
2013-03-17 03:56:00,37.2,34.5,30.02,East,92,2.0,5.0,90,0.00,,,0.06,Wunderground v.1.15,2013-03-17 07:56:00,
2013-03-17 04:02:00,37.1,34.7,30.01,East,92,0.0,2.0,91,0.00,,,0.06,Wunderground v.1.15,2013-03-17 08:02:00,
2013-03-17 04:08:00,37.1,34.7,30.01,East,92,0.0,2.0,91,0.00,,,0.07,Wunderground v.1.15,2013-03-17 08:08:00,
2013-03-17 04:14:00,37.1,34.7,30.01,East,92,0.0,0.0,91,0.00,,,0.07,Wunderground v.1.15,2013-03-17 08:14:00,
2013-03-17 04:20:00,37.0,34.9,30.01,East,92,0.0,0.0,92,0.00,,,0.07,Wunderground v.1.15,2013-03-17 08:20:00,
2013-03-17 04:26:00,36.9,34.8,30.01,East,92,1.0,3.0,92,0.00,,,0.07,Wunderground v.1.15,2013-03-17 08:26:00,
2013-03-17 04:32:00,36.9,34.8,30.01,East,92,1.0,1.0,92,0.00,,,0.08,Wunderground v.1.15,2013-03-17 08:32:00,
2013-03-17 04:38:00,36.8,34.7,30.01,East,92,0.0,1.0,92,0.00,,,0.08,Wunderground v.1.15,2013-03-17 08:38:00,
2013-03-17 04:44:00,36.8,34.7,30.01,East,92,1.0,1.0,92,0.04,,,0.09,Wunderground v.1.15,2013-03-17 08:44:00,
2013-03-17 04:50:00,36.7,34.6,30.02,East,92,0.0,0.0,92,0.04,,,0.09,Wunderground v.1.15,2013-03-17 08:50:00,
2013-03-17 04:56:00,36.7,34.9,30.02,East,92,0.0,0.0,93,0.04,,,0.09,Wunderground v.1.15,2013-03-17 08:56:00,
2013-03-17 05:02:00,36.7,34.9,30.02,East,92,0.0,0.0,93,0.00,,,0.10,Wunderground v.1.15,2013-03-17 09:02:00,
2013-03-17 05:08:00,36.7,34.9,30.03,East,92,0.0,0.0,93,0.00,,,0.10,Wunderground v.1.15,2013-03-17 09:08:00,
2013-03-17 05:14:00,36.6,34.8,30.03,East,92,0.0,2.0,93,0.00,,,0.10,Wunderground v.1.15,2013-03-17 09:14:00,
2013-03-17 05:20:00,36.5,34.7,30.03,East,92,1.0,1.0,93,0.05,,,0.11,Wunderground v.1.15,2013-03-17 09:20:00,
2013-03-17 05:28:00,36.3,34.5,30.02,East,91,2.0,3.0,93,0.05,,,0.11,Wunderground v.1.15,2013-03-17 09:28:00,
2013-03-17 05:34:00,36.2,34.6,30.02,East,91,3.0,3.0,94,0.00,,,0.11,Wunderground v.1.15,2013-03-17 09:34:00,
2013-03-17 05:40:00,36.2,34.6,30.02,East,91,2.0,3.0,94,0.00,,,0.12,Wunderground v.1.15,2013-03-17 09:40:00,
2013-03-17 05:46:00,36.1,34.5,30.02,East,90,2.0,5.0,94,0.00,,,0.12,Wunderground v.1.15,2013-03-17 09:46:00,
2013-03-17 05:52:00,36.0,34.4,30.02,NE,40,3.0,4.0,94,0.04,,,0.13,Wunderground v.1.15,2013-03-17 09:52:00,
2013-03-17 05:58:00,35.9,34.3,30.03,NE,36,3.0,4.0,94,0.04,,,0.13,Wunderground v.1.15,2013-03-17 09:58:00,
2013-03-17 06:04:00,35.9,34.3,30.04,NE,34,1.0,4.0,94,0.04,,,0.13,Wunderground v.1.15,2013-03-17 10:04:00,
2013-03-17 06:10:00,35.8,34.2,30.05,NNE,30,1.0,1.0,94,0.00,,,0.13,Wunderground v.1.15,2013-03-17 10:10:00,
2013-03-17 06:16:00,35.8,34.2,30.04,NNE,17,2.0,3.0,94,0.00,,,0.14,Wunderground v.1.15,2013-03-17 10:16:00,
2013-03-17 06:22:00,35.7,34.1,30.04,NNE,17,2.0,2.0,94,0.00,,,0.14,Wunderground v.1.15,2013-03-17 10:22:00,
2013-03-17 06:28:00,35.7,34.4,30.03,NNE,17,2.0,2.0,95,0.00,,,0.14,Wunderground v.1.15,2013-03-17 10:28:00,
2013-03-17 06:34:00,35.6,34.3,30.04,NNE,17,2.0,4.0,95,0.00,,,0.14,Wunderground v.1.15,2013-03-17 10:34:00,
2013-03-17 06:40:00,35.6,34.3,30.04,NNE,17,2.0,2.0,95,0.00,,,0.15,Wunderground v.1.15,2013-03-17 10:40:00,
2013-03-17 06:46:00,35.7,34.4,30.04,NNE,17,1.0,4.0,95,0.00,,,0.15,Wunderground v.1.15,2013-03-17 10:46:00,
2013-03-17 06:52:00,35.7,34.4,30.03,ENE,71,2.0,2.0,95,0.00,,,0.15,Wunderground v.1.15,2013-03-17 10:52:00,
2013-03-17 06:58:00,35.7,34.4,30.02,ENE,71,2.0,3.0,95,0.00,,,0.15,Wunderground v.1.15,2013-03-17 10:58:00,
2013-03-17 07:04:00,35.7,34.4,30.03,ENE,71,2.0,4.0,95,0.00,,,0.15,Wunderground v.1.15,2013-03-17 11:04:00,
2013-03-17 07:10:00,35.7,34.4,30.04,ENE,71,2.0,2.0,95,0.00,,,0.16,Wunderground v.1.15,2013-03-17 11:10:00,
2013-03-17 07:16:00,35.7,34.4,30.05,NE,42,1.0,4.0,95,0.00,,,0.16,Wunderground v.1.15,2013-03-17 11:16:00,
2013-03-17 07:22:00,35.7,34.4,30.06,NNE,25,2.0,4.0,95,0.00,,,0.16,Wunderground v.1.15,2013-03-17 11:22:00,
2013-03-17 07:28:00,35.7,34.4,30.06,NNE,25,2.0,4.0,95,0.00,,,0.16,Wunderground v.1.15,2013-03-17 11:28:00,
2013-03-17 07:34:00,35.6,34.3,30.06,NNE,31,2.0,6.0,95,0.00,,,0.17,Wunderground v.1.15,2013-03-17 11:34:00,
2013-03-17 07:40:00,35.5,34.2,30.06,ENE,60,3.0,3.0,95,0.00,,,0.17,Wunderground v.1.15,2013-03-17 11:40:00,
2013-03-17 07:46:00,35.5,34.2,30.07,NNE,12,4.0,5.0,95,0.00,,,0.17,Wunderground v.1.15,2013-03-17 11:46:00,
2013-03-17 07:52:00,35.4,34.1,30.07,North,5,4.0,5.0,95,0.00,,,0.17,Wunderground v.1.15,2013-03-17 11:52:00,
2013-03-17 07:58:00,35.1,33.8,30.07,North,10,2.0,5.0,95,0.00,,,0.17,Wunderground v.1.15,2013-03-17 11:58:00,
2013-03-17 08:04:00,34.8,33.5,30.07,NNE,22,4.0,4.0,95,0.00,,,0.18,Wunderground v.1.15,2013-03-17 12:04:00,
2013-03-17 08:10:00,34.5,33.0,30.07,ENE,57,3.0,8.0,94,0.00,,,0.18,Wunderground v.1.15,2013-03-17 12:10:00,
2013-03-17 08:16:00,34.3,33.0,30.08,NNE,26,3.0,8.0,95,0.00,,,0.18,Wunderground v.1.15,2013-03-17 12:16:00,
2013-03-17 08:22:00,34.1,32.8,30.08,NE,42,4.0,8.0,95,0.00,,,0.18,Wunderground v.1.15,2013-03-17 12:22:00,
2013-03-17 08:28:00,34.1,32.8,30.08,NE,42,6.0,9.0,95,0.00,,,0.18,Wunderground v.1.15,2013-03-17 12:28:00,
2013-03-17 08:34:00,34.1,32.8,30.06,ENE,74,6.0,7.0,95,0.00,,,0.19,Wunderground v.1.15,2013-03-17 12:34:00,
2013-03-17 08:40:00,34.1,32.8,30.07,ENE,59,7.0,7.0,95,0.00,,,0.19,Wunderground v.1.15,2013-03-17 12:40:00,
2013-03-17 08:48:00,34.2,32.9,30.06,ENE,77,7.0,12.0,95,0.00,,,0.19,Wunderground v.1.15,2013-03-17 12:48:00,
2013-03-17 08:54:00,34.2,32.9,30.05,NE,53,7.0,9.0,95,0.00,,,0.19,Wunderground v.1.15,2013-03-17 12:54:00,
2013-03-17 09:00:00,34.2,32.9,30.03,East,87,9.0,16.0,95,0.00,,,0.19,Wunderground v.1.15,2013-03-17 13:00:00,
2013-03-17 09:06:00,34.3,33.0,30.05,ENE,57,10.0,16.0,95,0.00,,,0.19,Wunderground v.1.15,2013-03-17 13:06:00,
2013-03-17 09:12:00,34.3,32.8,30.07,NE,53,8.0,9.0,94,0.00,,,0.19,Wunderground v.1.15,2013-03-17 13:12:00,
2013-03-17 09:18:00,34.3,32.8,30.06,NE,43,7.0,11.0,94,0.00,,,0.20,Wunderground v.1.15,2013-03-17 13:18:00,
2013-03-17 09:24:00,34.3,32.8,30.06,ENE,76,9.0,10.0,94,0.00,,,0.20,Wunderground v.1.15,2013-03-17 13:24:00,
2013-03-17 09:30:00,34.3,32.5,30.06,East,87,8.0,8.0,93,0.00,,,0.20,Wunderground v.1.15,2013-03-17 13:30:00,
2013-03-17 09:36:00,34.2,32.4,30.06,East,84,8.0,9.0,93,0.00,,,0.20,Wunderground v.1.15,2013-03-17 13:36:00,
2013-03-17 09:42:00,34.2,32.4,30.06,East,95,8.0,8.0,93,0.00,,,0.20,Wunderground v.1.15,2013-03-17 13:42:00,
2013-03-17 09:48:00,34.2,32.4,30.06,East,88,8.0,14.0,93,0.00,,,0.21,Wunderground v.1.15,2013-03-17 13:48:00,
2013-03-17 09:54:00,34.3,32.5,30.07,NE,53,8.0,9.0,93,0.00,,,0.21,Wunderground v.1.15,2013-03-17 13:54:00,
2013-03-17 10:00:00,34.4,32.6,30.07,ENE,69,6.0,8.0,93,0.00,,,0.21,Wunderground v.1.15,2013-03-17 14:00:00,
2013-03-17 10:08:00,34.4,32.6,30.07,ENE,73,6.0,8.0,93,0.00,,,0.21,Wunderground v.1.15,2013-03-17 14:08:00,
2013-03-17 10:14:00,34.3,32.5,30.07,East,90,6.0,9.0,93,0.00,,,0.21,Wunderground v.1.15,2013-03-17 14:14:00,
2013-03-17 10:20:00,34.2,32.4,30.07,ENE,73,7.0,7.0,93,0.00,,,0.21,Wunderground v.1.15,2013-03-17 14:20:00,
2013-03-17 10:26:00,34.2,32.4,30.07,East,81,6.0,8.0,93,0.00,,,0.21,Wunderground v.1.15,2013-03-17 14:26:00,
2013-03-17 10:32:00,34.1,32.3,30.07,ENE,73,6.0,7.0,93,0.00,,,0.22,Wunderground v.1.15,2013-03-17 14:32:00,
2013-03-17 10:38:00,34.0,32.2,30.07,East,98,6.0,7.0,93,0.00,,,0.22,Wunderground v.1.15,2013-03-17 14:38:00,
2013-03-17 10:44:00,33.9,32.4,30.07,East,82,6.0,8.0,94,0.00,,,0.22,Wunderground v.1.15,2013-03-17 14:44:00,
2013-03-17 10:50:00,33.8,32.3,30.07,East,96,6.0,6.0,94,0.00,,,0.22,Wunderground v.1.15,2013-03-17 14:50:00,
2013-03-17 10:56:00,33.8,32.3,30.06,East,80,5.0,6.0,94,0.00,,,0.22,Wunderground v.1.15,2013-03-17 14:56:00,
2013-03-17 11:02:00,33.8,32.3,30.06,East,91,4.0,6.0,94,0.00,,,0.22,Wunderground v.1.15,2013-03-17 15:02:00,
2013-03-17 11:08:00,33.8,32.3,30.07,ENE,74,5.0,8.0,94,0.00,,,0.23,Wunderground v.1.15,2013-03-17 15:08:00,
2013-03-17 11:14:00,33.8,32.3,30.07,East,92,6.0,7.0,94,0.00,,,0.23,Wunderground v.1.15,2013-03-17 15:14:00,
2013-03-17 11:20:00,33.8,32.3,30.07,ESE,103,5.0,5.0,94,0.00,,,0.23,Wunderground v.1.15,2013-03-17 15:20:00,
2013-03-17 11:28:00,33.9,32.6,30.07,ENE,73,6.0,12.0,95,0.00,,,0.23,Wunderground v.1.15,2013-03-17 15:28:00,
2013-03-17 11:34:00,33.9,32.6,30.07,East,79,7.0,7.0,95,0.00,,,0.23,Wunderground v.1.15,2013-03-17 15:34:00,
2013-03-17 11:40:00,34.0,32.7,30.07,ENE,74,5.0,5.0,95,0.00,,,0.23,Wunderground v.1.15,2013-03-17 15:40:00,
2013-03-17 11:46:00,34.1,32.8,30.07,East,94,5.0,9.0,95,0.00,,,0.23,Wunderground v.1.15,2013-03-17 15:46:00,
2013-03-17 11:52:00,34.1,32.8,30.07,East,89,5.0,7.0,95,0.00,,,0.24,Wunderground v.1.15,2013-03-17 15:52:00,
2013-03-17 11:58:00,34.1,32.8,30.07,ENE,71,5.0,7.0,95,0.00,,,0.24,Wunderground v.1.15,2013-03-17 15:58:00,
2013-03-17 12:04:00,34.1,32.8,30.07,East,84,4.0,6.0,95,0.00,,,0.24,Wunderground v.1.15,2013-03-17 16:04:00,
2013-03-17 12:10:00,34.2,32.9,30.07,ESE,107,4.0,7.0,95,0.00,,,0.24,Wunderground v.1.15,2013-03-17 16:10:00,
2013-03-17 12:18:00,34.3,33.0,30.07,East,83,6.0,8.0,95,0.00,,,0.24,Wunderground v.1.15,2013-03-17 16:18:00,
2013-03-17 12:24:00,34.3,33.0,30.07,NE,55,4.0,5.0,95,0.00,,,0.25,Wunderground v.1.15,2013-03-17 16:24:00,
2013-03-17 12:30:00,34.4,33.1,30.06,NE,55,4.0,4.0,95,0.00,,,0.25,Wunderground v.1.15,2013-03-17 16:30:00,
2013-03-17 12:36:00,34.5,33.2,30.06,ENE,74,5.0,9.0,95,0.00,,,0.25,Wunderground v.1.15,2013-03-17 16:36:00,
2013-03-17 12:42:00,34.5,33.2,30.07,ENE,62,6.0,7.0,95,0.00,,,0.25,Wunderground v.1.15,2013-03-17 16:42:00,
2013-03-17 12:48:00,34.6,33.3,30.07,NE,50,6.0,10.0,95,0.00,,,0.25,Wunderground v.1.15,2013-03-17 16:48:00,
2013-03-17 12:54:00,34.7,33.4,30.07,ENE,67,6.0,8.0,95,0.00,,,0.25,Wunderground v.1.15,2013-03-17 16:54:00,
2013-03-17 13:00:00,34.8,33.5,30.07,ENE,63,6.0,8.0,95,0.00,,,0.25,Wunderground v.1.15,2013-03-17 17:00:00,
2013-03-17 13:06:00,34.8,33.5,30.07,ENE,61,6.0,9.0,95,0.00,,,0.25,Wunderground v.1.15,2013-03-17 17:06:00,
2013-03-17 13:12:00,34.7,33.4,30.07,ENE,67,7.0,9.0,95,0.00,,,0.25,Wunderground v.1.15,2013-03-17 17:12:00,
2013-03-17 13:18:00,34.8,33.5,30.07,ENE,69,7.0,9.0,95,0.00,,,0.26,Wunderground v.1.15,2013-03-17 17:18:00,
2013-03-17 13:24:00,34.9,33.6,30.08,NE,55,6.0,7.0,95,0.00,,,0.26,Wunderground v.1.15,2013-03-17 17:24:00,
2013-03-17 13:30:00,34.8,33.5,30.07,ENE,76,7.0,8.0,95,0.00,,,0.26,Wunderground v.1.15,2013-03-17 17:30:00,
2013-03-17 13:36:00,34.8,33.5,30.08,ENE,67,8.0,9.0,95,0.00,,,0.26,Wunderground v.1.15,2013-03-17 17:36:00,
2013-03-17 13:42:00,34.9,33.6,30.08,ENE,71,7.0,7.0,95,0.00,,,0.26,Wunderground v.1.15,2013-03-17 17:42:00,
2013-03-17 13:48:00,35.0,33.7,30.07,ENE,61,7.0,7.0,95,0.00,,,0.26,Wunderground v.1.15,2013-03-17 17:48:00,
2013-03-17 13:54:00,35.1,33.8,30.07,ENE,73,6.0,9.0,95,0.00,,,0.27,Wunderground v.1.15,2013-03-17 17:54:00,
2013-03-17 14:00:00,35.0,33.4,30.07,ENE,78,7.0,7.0,94,0.00,,,0.27,Wunderground v.1.15,2013-03-17 18:00:00,
2013-03-17 14:06:00,35.1,33.5,30.07,ENE,76,6.0,7.0,94,0.00,,,0.27,Wunderground v.1.15,2013-03-17 18:06:00,
2013-03-17 14:14:00,35.1,33.5,30.07,ENE,72,6.0,9.0,94,0.00,,,0.27,Wunderground v.1.15,2013-03-17 18:14:00,
2013-03-17 14:20:00,35.1,33.5,30.07,East,94,8.0,9.0,94,0.00,,,0.27,Wunderground v.1.15,2013-03-17 18:20:00,
2013-03-17 14:26:00,35.2,33.6,30.07,East,92,8.0,9.0,94,0.00,,,0.27,Wunderground v.1.15,2013-03-17 18:26:00,
2013-03-17 14:32:00,35.2,33.6,30.06,East,80,8.0,8.0,94,0.00,,,0.27,Wunderground v.1.15,2013-03-17 18:32:00,
2013-03-17 14:38:00,35.2,33.6,30.06,East,83,8.0,10.0,94,0.00,,,0.27,Wunderground v.1.15,2013-03-17 18:38:00,
2013-03-17 14:44:00,35.4,33.8,30.06,East,89,8.0,9.0,94,0.00,,,0.28,Wunderground v.1.15,2013-03-17 18:44:00,
2013-03-17 14:50:00,35.3,33.7,30.05,ENE,74,9.0,9.0,94,0.00,,,0.28,Wunderground v.1.15,2013-03-17 18:50:00,
2013-03-17 14:58:00,35.3,33.7,30.04,East,80,10.0,11.0,94,0.00,,,0.28,Wunderground v.1.15,2013-03-17 18:58:00,
2013-03-17 15:04:00,35.5,33.9,30.03,East,101,9.0,11.0,94,0.00,,,0.28,Wunderground v.1.15,2013-03-17 19:04:00,
2013-03-17 15:10:00,35.5,33.9,30.03,ENE,67,9.0,11.0,94,0.00,,,0.28,Wunderground v.1.15,2013-03-17 19:10:00,
2013-03-17 15:16:00,35.5,33.9,30.02,ENE,61,10.0,13.0,94,0.00,,,0.28,Wunderground v.1.15,2013-03-17 19:16:00,
2013-03-17 15:22:00,35.5,33.9,30.02,ENE,71,11.0,14.0,94,0.00,,,0.29,Wunderground v.1.15,2013-03-17 19:22:00,
2013-03-17 15:28:00,35.5,33.7,30.02,NE,55,11.0,14.0,93,0.00,,,0.29,Wunderground v.1.15,2013-03-17 19:28:00,
2013-03-17 15:34:00,35.7,33.9,30.01,East,82,10.0,11.0,93,0.00,,,0.29,Wunderground v.1.15,2013-03-17 19:34:00,
2013-03-17 15:40:00,35.7,33.9,30.01,East,96,10.0,10.0,93,0.00,,,0.29,Wunderground v.1.15,2013-03-17 19:40:00,
2013-03-17 15:48:00,35.9,34.1,30.00,ENE,78,10.0,11.0,93,0.00,,,0.29,Wunderground v.1.15,2013-03-17 19:48:00,
2013-03-17 15:54:00,36.0,34.2,30.00,ENE,73,9.0,13.0,93,0.00,,,0.29,Wunderground v.1.15,2013-03-17 19:54:00,
2013-03-17 16:00:00,35.9,33.8,30.00,ENE,74,11.0,14.0,92,0.00,,,0.29,Wunderground v.1.15,2013-03-17 20:00:00,
2013-03-17 16:08:00,35.9,33.8,30.00,East,84,13.0,17.0,92,0.00,,,0.29,Wunderground v.1.15,2013-03-17 20:08:00,
2013-03-17 16:14:00,36.1,34.0,29.99,ENE,69,11.0,12.0,92,0.00,,,0.30,Wunderground v.1.15,2013-03-17 20:14:00,
2013-03-17 16:20:00,36.1,34.0,29.99,East,84,11.0,17.0,92,0.00,,,0.30,Wunderground v.1.15,2013-03-17 20:20:00,
2013-03-17 16:26:00,36.0,33.6,29.99,ENE,63,12.0,17.0,91,0.00,,,0.30,Wunderground v.1.15,2013-03-17 20:26:00,
2013-03-17 16:32:00,36.1,33.7,29.99,East,82,13.0,13.0,91,0.00,,,0.30,Wunderground v.1.15,2013-03-17 20:32:00,
2013-03-17 16:38:00,36.2,33.8,29.99,East,85,11.0,13.0,91,0.00,,,0.30,Wunderground v.1.15,2013-03-17 20:38:00,
2013-03-17 16:44:00,36.2,33.8,29.98,ESE,105,10.0,15.0,91,0.00,,,0.30,Wunderground v.1.15,2013-03-17 20:44:00,
2013-03-17 16:50:00,36.1,33.7,29.98,NE,52,11.0,11.0,91,0.00,,,0.30,Wunderground v.1.15,2013-03-17 20:50:00,
2013-03-17 16:56:00,36.1,33.7,29.98,ENE,61,11.0,12.0,91,0.00,,,0.30,Wunderground v.1.15,2013-03-17 20:56:00,
2013-03-17 17:02:00,36.2,33.8,29.97,ENE,77,10.0,11.0,91,0.00,,,0.31,Wunderground v.1.15,2013-03-17 21:02:00,
2013-03-17 17:08:00,36.2,33.5,29.97,ENE,57,13.0,15.0,90,0.00,,,0.31,Wunderground v.1.15,2013-03-17 21:08:00,
2013-03-17 17:14:00,36.3,33.9,29.97,East,85,12.0,16.0,91,0.00,,,0.31,Wunderground v.1.15,2013-03-17 21:14:00,
2013-03-17 17:20:00,36.4,34.0,29.97,East,91,10.0,10.0,91,0.00,,,0.31,Wunderground v.1.15,2013-03-17 21:20:00,
2013-03-17 17:26:00,36.5,34.1,29.97,ESE,107,9.0,10.0,91,0.00,,,0.31,Wunderground v.1.15,2013-03-17 21:26:00,
2013-03-17 17:32:00,36.5,33.8,29.96,East,96,10.0,13.0,90,0.00,,,0.31,Wunderground v.1.15,2013-03-17 21:32:00,
2013-03-17 17:38:00,36.5,33.8,29.96,East,96,11.0,14.0,90,0.00,,,0.31,Wunderground v.1.15,2013-03-17 21:38:00,
2013-03-17 17:44:00,36.5,33.8,29.97,East,80,12.0,14.0,90,0.00,,,0.31,Wunderground v.1.15,2013-03-17 21:44:00,
2013-03-17 17:50:00,36.6,33.9,29.97,East,86,11.0,11.0,90,0.00,,,0.31,Wunderground v.1.15,2013-03-17 21:50:00,
2013-03-17 17:58:00,36.6,33.9,29.98,ENE,71,8.0,11.0,90,0.00,,,0.32,Wunderground v.1.15,2013-03-17 21:58:00,
2013-03-17 18:04:00,36.6,33.9,29.98,East,80,8.0,11.0,90,0.00,,,0.32,Wunderground v.1.15,2013-03-17 22:04:00,
2013-03-17 18:10:00,36.6,33.9,29.98,East,85,11.0,11.0,90,0.00,,,0.32,Wunderground v.1.15,2013-03-17 22:10:00,
2013-03-17 18:16:00,36.6,33.9,29.98,ENE,71,10.0,11.0,90,0.00,,,0.32,Wunderground v.1.15,2013-03-17 22:16:00,
2013-03-17 18:22:00,36.5,33.8,29.98,ENE,76,8.0,9.0,90,0.00,,,0.32,Wunderground v.1.15,2013-03-17 22:22:00,
2013-03-17 18:28:00,36.5,33.8,29.98,ENE,62,8.0,9.0,90,0.00,,,0.32,Wunderground v.1.15,2013-03-17 22:28:00,
2013-03-17 18:34:00,36.5,33.8,29.98,East,83,7.0,9.0,90,0.00,,,0.32,Wunderground v.1.15,2013-03-17 22:34:00,
2013-03-17 18:40:00,36.5,34.1,29.98,ENE,69,7.0,7.0,91,0.00,,,0.32,Wunderground v.1.15,2013-03-17 22:40:00,
2013-03-17 18:46:00,36.4,34.0,29.98,East,90,8.0,10.0,91,0.00,,,0.33,Wunderground v.1.15,2013-03-17 22:46:00,
2013-03-17 18:52:00,36.3,33.9,29.97,ENE,66,8.0,11.0,91,0.00,,,0.33,Wunderground v.1.15,2013-03-17 22:52:00,
2013-03-17 18:58:00,36.2,34.1,29.97,ENE,73,9.0,13.0,92,0.00,,,0.33,Wunderground v.1.15,2013-03-17 22:58:00,
2013-03-17 19:04:00,36.2,34.1,29.96,East,84,9.0,12.0,92,0.00,,,0.33,Wunderground v.1.15,2013-03-17 23:04:00,
2013-03-17 19:10:00,36.1,34.0,29.97,ENE,75,9.0,9.0,92,0.00,,,0.33,Wunderground v.1.15,2013-03-17 23:10:00,
2013-03-17 19:18:00,36.1,34.3,29.96,ENE,67,8.0,10.0,93,0.00,,,0.33,Wunderground v.1.15,2013-03-17 23:18:00,
2013-03-17 19:24:00,36.1,34.3,29.95,East,82,7.0,8.0,93,0.00,,,0.33,Wunderground v.1.15,2013-03-17 23:24:00,
2013-03-17 19:30:00,36.1,34.3,29.97,ENE,77,8.0,8.0,93,0.00,,,0.33,Wunderground v.1.15,2013-03-17 23:30:00,
2013-03-17 19:38:00,36.1,34.3,29.97,ENE,65,8.0,9.0,93,0.00,,,0.33,Wunderground v.1.15,2013-03-17 23:38:00,
2013-03-17 19:44:00,36.1,34.5,29.97,ENE,59,8.0,10.0,94,0.00,,,0.33,Wunderground v.1.15,2013-03-17 23:44:00,
2013-03-17 19:50:00,36.1,34.5,29.98,East,84,6.0,7.0,94,0.00,,,0.34,Wunderground v.1.15,2013-03-17 23:50:00,
2013-03-17 19:58:00,36.1,34.5,29.98,ENE,63,8.0,8.0,94,0.00,,,0.34,Wunderground v.1.15,2013-03-17 23:58:00,
2013-03-17 20:04:00,36.2,34.6,29.97,NE,56,9.0,9.0,94,0.00,,,0.34,Wunderground v.1.15,2013-03-18 00:04:00,
2013-03-17 20:10:00,36.2,34.6,29.97,NE,43,9.0,9.0,94,0.00,,,0.34,Wunderground v.1.15,2013-03-18 00:10:00,
2013-03-17 20:18:00,36.2,34.6,29.96,ENE,70,9.0,13.0,94,0.00,,,0.34,Wunderground v.1.15,2013-03-18 00:18:00,
2013-03-17 20:24:00,36.2,34.6,29.96,ENE,76,10.0,10.0,94,0.00,,,0.34,Wunderground v.1.15,2013-03-18 00:24:00,
2013-03-17 20:30:00,36.2,34.6,29.95,East,84,10.0,10.0,94,0.00,,,0.34,Wunderground v.1.15,2013-03-18 00:30:00,
2013-03-17 20:38:00,36.1,34.5,29.94,East,86,9.0,15.0,94,0.00,,,0.35,Wunderground v.1.15,2013-03-18 00:38:00,
2013-03-17 20:44:00,36.1,34.5,29.94,East,100,10.0,15.0,94,0.00,,,0.35,Wunderground v.1.15,2013-03-18 00:44:00,
2013-03-17 20:50:00,36.1,34.5,29.93,ENE,65,11.0,11.0,94,0.00,,,0.35,Wunderground v.1.15,2013-03-18 00:50:00,
2013-03-17 20:58:00,36.1,34.5,29.92,ENE,72,13.0,22.0,94,0.00,,,0.35,Wunderground v.1.15,2013-03-18 00:58:00,
2013-03-17 21:04:00,36.1,34.5,29.92,ENE,68,12.0,14.0,94,0.00,,,0.35,Wunderground v.1.15,2013-03-18 01:04:00,
2013-03-17 21:10:00,36.1,34.5,29.92,East,83,11.0,11.0,94,0.00,,,0.35,Wunderground v.1.15,2013-03-18 01:10:00,
2013-03-17 21:16:00,36.2,34.6,29.92,ESE,110,11.0,11.0,94,0.00,,,0.35,Wunderground v.1.15,2013-03-18 01:16:00,
2013-03-17 21:22:00,36.2,34.6,29.92,East,87,10.0,13.0,94,0.00,,,0.35,Wunderground v.1.15,2013-03-18 01:22:00,
2013-03-17 21:28:00,36.2,34.6,29.92,ENE,75,10.0,18.0,94,0.00,,,0.35,Wunderground v.1.15,2013-03-18 01:28:00,
2013-03-17 21:34:00,36.3,35.0,29.92,East,90,9.0,14.0,95,0.00,,,0.35,Wunderground v.1.15,2013-03-18 01:34:00,
2013-03-17 21:40:00,36.3,35.0,29.92,ENE,71,10.0,11.0,95,0.00,,,0.36,Wunderground v.1.15,2013-03-18 01:40:00,
2013-03-17 21:46:00,36.4,35.1,29.91,East,87,11.0,17.0,95,0.00,,,0.36,Wunderground v.1.15,2013-03-18 01:46:00,
2013-03-17 21:52:00,36.4,35.1,29.90,ENE,59,11.0,15.0,95,0.00,,,0.36,Wunderground v.1.15,2013-03-18 01:52:00,
2013-03-17 21:58:00,36.5,35.2,29.91,ESE,109,12.0,16.0,95,0.00,,,0.36,Wunderground v.1.15,2013-03-18 01:58:00,
2013-03-17 22:04:00,36.5,35.2,29.90,ENE,69,11.0,14.0,95,0.00,,,0.36,Wunderground v.1.15,2013-03-18 02:04:00,
2013-03-17 22:10:00,36.6,35.3,29.92,ENE,64,12.0,12.0,95,0.00,,,0.36,Wunderground v.1.15,2013-03-18 02:10:00,
2013-03-17 22:18:00,36.8,35.5,29.92,East,94,9.0,12.0,95,0.00,,,0.37,Wunderground v.1.15,2013-03-18 02:18:00,
2013-03-17 22:24:00,36.8,35.5,29.90,NE,42,10.0,10.0,95,0.00,,,0.37,Wunderground v.1.15,2013-03-18 02:24:00,
2013-03-17 22:30:00,36.8,35.2,29.90,East,82,12.0,14.0,94,0.00,,,0.37,Wunderground v.1.15,2013-03-18 02:30:00,
2013-03-17 22:38:00,36.9,35.3,29.88,ENE,58,12.0,17.0,94,0.00,,,0.37,Wunderground v.1.15,2013-03-18 02:38:00,
2013-03-17 22:44:00,36.8,35.2,29.88,East,98,12.0,13.0,94,0.00,,,0.37,Wunderground v.1.15,2013-03-18 02:44:00,
2013-03-17 22:50:00,36.8,35.5,29.88,East,84,14.0,14.0,95,0.00,,,0.37,Wunderground v.1.15,2013-03-18 02:50:00,
2013-03-17 22:56:00,36.8,35.5,29.87,ENE,66,13.0,19.0,95,0.00,,,0.37,Wunderground v.1.15,2013-03-18 02:56:00,
2013-03-17 23:02:00,36.8,35.5,29.88,East,80,13.0,17.0,95,0.00,,,0.37,Wunderground v.1.15,2013-03-18 03:02:00,
2013-03-17 23:08:00,36.8,35.5,29.87,ENE,61,13.0,17.0,95,0.00,,,0.37,Wunderground v.1.15,2013-03-18 03:08:00,
2013-03-17 23:14:00,36.8,35.5,29.87,ENE,73,12.0,15.0,95,0.00,,,0.37,Wunderground v.1.15,2013-03-18 03:14:00,
2013-03-17 23:20:00,36.8,35.5,29.86,ENE,72,12.0,12.0,95,0.00,,,0.38,Wunderground v.1.15,2013-03-18 03:20:00,
2013-03-17 23:28:00,36.9,35.6,29.88,East,84,12.0,13.0,95,0.00,,,0.38,Wunderground v.1.15,2013-03-18 03:28:00,
2013-03-17 23:34:00,36.9,35.6,29.89,ESE,103,11.0,12.0,95,0.00,,,0.38,Wunderground v.1.15,2013-03-18 03:34:00,
2013-03-17 23:40:00,36.9,35.6,29.87,East,87,10.0,16.0,95,0.00,,,0.38,Wunderground v.1.15,2013-03-18 03:40:00,
2013-03-17 23:46:00,36.9,35.6,29.87,ESE,107,12.0,16.0,95,0.00,,,0.38,Wunderground v.1.15,2013-03-18 03:46:00,
2013-03-17 23:52:00,36.9,35.6,29.85,East,86,13.0,15.0,95,0.00,,,0.38,Wunderground v.1.15,2013-03-18 03:52:00,
2013-03-17 23:58:00,36.8,35.5,29.85,East,94,12.0,19.0,95,0.00,,,0.39,Wunderground v.1.15,2013-03-18 03:58:00,